Wind_Speed
43 44 45 46 47 48 49 50 52 53 54 55 56 58 59 61 62 63 65 66 67 68 70 71 72 73 74 75 77 78 79 80 81 78 79 79 79 79 79 79 79 78 77
44 45 46 48 49 50 51 52 54 55 56 57 59 60 62 63 65 66 67 68 69 70 72 73 74 76 77 78 79 80 81 82 83 82 80 80 80 80 79 78 77 76 75
46 47 48 49 51 52 53 54 56 57 58 60 61 63 65 66 67 68 69 70 71 72 74 75 76 78 78 79 80 81 82 83 84 83 80 79 77 76 75 74 73 71 70
47 49 50 51 52 53 55 56 58 59 61 62 64 66 67 68 69 70 71 72 73 74 76 77 79 80 80 81 82 82 83 83 82 80 78 75 72 70 69 68 66 65 63
48 50 51 52 54 55 56 58 60 61 63 64 66 68 69 70 71 72 73 74 75 76 78 79 80 80 81 82 82 82 81 80 78 76 73 69 66 64 62 61 60 57 55
50 51 53 54 55 57 58 60 62 63 65 67 68 69 70 72 73 74 75 77 78 79 79 80 80 81 81 81 80 79 78 76 73 70 67 64 60 57 56 54 53 51 48
52 53 55 56 57 59 60 62 64 65 67 68 69 70 72 73 75 76 78 79 79 80 80 80 80 80 80 79 76 74 72 69 67 65 61 57 54 52 50 48 46 44 42
53 55 56 58 59 61 62 64 66 67 68 69 70 72 74 75 77 79 80 80 80 80 80 80 79 78 76 74 72 69 66 62 60 58 56 52 50 48 46 44 42 40 37
55 57 58 59 61 63 64 66 67 68 69 71 73 74 76 77 79 80 81 80 80 79 78 78 77 74 71 69 67 64 60 57 55 53 51 48 45 43 42 40 38 36 33
57 58 59 61 63 64 65 67 68 70 71 73 75 77 78 80 80 81 81 81 80 78 76 74 71 69 66 64 63 60 56 53 51 48 46 43 41 39 38 38 36 34 32
58 59 61 62 64 65 67 69 70 72 74 76 77 78 80 81 81 81 81 81 80 76 73 68 65 64 62 61 59 56 53 50 48 44 41 38 37 37 36 36 35 33 30
59 60 61 63 65 67 69 71 73 75 77 78 79 79 80 80 80 80 80 79 76 73 68 65 62 61 60 57 54 51 49 47 44 40 37 35 34 34 33 33 32 31 30
60 61 63 65 67 69 71 73 75 78 79 80 81 81 79 78 78 78 77 74 71 68 65 62 61 59 56 52 49 47 45 42 39 35 33 32 31 31 31 30 29 29 29
61 63 65 67 69 71 73 75 78 79 80 81 81 80 79 78 76 75 72 69 66 63 61 59 57 54 51 48 45 43 40 37 34 32 30 29 29 29 29 28 28 27 27
63 65 67 69 71 73 75 78 79 80 81 82 81 80 80 77 74 71 69 65 61 59 58 55 53 49 46 44 41 39 36 34 31 30 29 28 27 27 27 27 27 26 26
65 67 70 72 74 76 78 79 80 80 80 80 80 80 78 75 71 67 64 61 58 57 56 53 49 46 43 40 37 34 33 31 30 29 28 27 27 26 26 26 26 26 25
68 70 72 75 77 79 80 81 80 79 77 77 77 76 74 71 67 63 60 58 56 55 53 50 46 43 40 37 34 32 30 30 29 29 28 27 27 26 25 25 25 25 24
70 73 75 77 79 81 81 81 81 79 76 74 73 71 69 66 62 60 58 56 54 53 50 46 43 40 37 35 32 30 30 29 29 28 27 27 26 26 25 24 24 23 23
73 76 78 80 81 82 81 80 79 77 76 73 69 65 63 61 58 57 56 55 52 49 46 42 39 37 35 33 31 30 29 29 28 28 27 27 26 25 24 24 24 23 23
76 78 80 81 82 81 80 79 77 75 73 70 65 62 59 57 55 54 53 51 49 45 42 39 37 36 34 32 30 29 29 28 28 27 26 26 25 24 24 23 23 23 22
78 80 81 82 81 80 78 76 74 72 68 64 61 59 57 55 53 51 50 47 44 41 39 36 35 34 32 31 29 29 28 28 27 27 26 25 25 24 23 22 22 22 22
80 81 82 81 79 77 75 73 71 67 64 61 58 56 54 53 51 49 46 43 40 39 37 35 33 32 31 29 29 29 28 28 27 26 25 25 24 23 23 22 22 21 22
82 81 80 78 77 75 72 69 66 63 60 58 55 53 51 49 48 45 42 40 38 37 35 34 32 31 30 30 30 29 28 28 27 26 25 24 24 23 23 22 22 21 22
81 80 78 76 74 72 68 64 61 59 57 54 52 50 48 46 44 42 40 38 36 35 34 33 32 31 30 30 30 29 28 27 26 25 25 24 24 23 23 22 22 22 21
79 76 74 73 70 67 63 60 57 55 53 51 49 47 45 44 42 40 38 36 35 34 33 32 32 31 30 30 29 28 27 26 26 25 25 25 24 24 24 23 23 22 22
74 73 71 69 65 61 58 56 53 51 49 47 46 44 43 42 40 38 37 35 34 33 33 32 32 31 30 29 28 28 27 27 26 26 25 25 25 25 25 24 24 24 23
Wind_Direction
297 298 299 300 300 301 301 301 302 302 303 303 303 303 303 303 303 303 303 302 302 302 301 301 300 300 299 299 298 298 297 296 296 295 294 292 291 290 288 286 284 282 280
297 298 299 300 300 301 301 302 303 303 304 304 304 304 304 304 304 303 303 303 302 302 302 302 301 301 300 300 299 298 298 297 297 296 294 293 291 290 288 286 285 283 281
298 299 299 300 300 301 302 303 303 304 304 304 305 305 305 304 304 304 303 303 303 303 303 302 302 301 300 300 299 299 298 297 297 296 295 294 292 290 288 286 285 283 281
298 299 300 300 301 302 302 303 304 304 305 305 305 305 305 305 305 304 304 304 304 304 303 303 302 301 301 300 299 299 298 298 297 297 296 294 293 290 289 287 285 283 281
298 299 300 300 301 302 303 303 304 305 305 306 306 306 306 306 305 305 305 305 304 304 304 303 303 302 301 301 300 300 299 299 298 297 296 295 293 291 289 287 286 284 282
299 299 300 301 302 303 303 304 305 305 306 306 306 306 307 306 306 306 306 306 306 305 305 304 303 303 302 302 301 301 300 299 298 297 296 295 293 291 289 288 287 284 281
299 300 300 301 302 303 304 304 305 306 306 307 307 307 307 307 307 307 307 307 306 306 306 305 304 304 303 302 301 301 300 299 299 297 296 295 293 291 290 289 287 285 282
300 300 301 302 303 303 304 305 306 306 307 307 307 308 308 308 308 308 307 307 307 307 306 306 305 305 304 303 302 301 300 299 298 297 296 294 292 291 289 288 286 285 283
300 301 302 302 303 304 305 306 306 307 307 307 308 308 308 308 308 308 308 307 307 307 307 307 306 305 304 303 303 302 301 299 297 296 295 293 291 289 288 287 286 285 282
301 302 302 303 304 305 306 306 307 307 308 308 309 309 309 309 309 308 308 308 308 308 308 307 307 306 305 304 303 302 301 299 297 295 294 291 289 287 287 286 285 284 282
302 303 303 304 305 306 306 307 307 307 308 309 309 309 310 310 309 309 309 309 309 309 309 308 307 306 306 305 303 302 301 300 298 296 292 289 286 285 285 284 283 282 280
303 303 304 305 306 306 307 307 308 308 309 309 309 310 310 310 310 310 310 310 310 309 309 308 308 307 306 304 303 301 300 300 298 295 291 288 285 284 284 283 281 280 278
304 304 305 306 306 307 307 308 308 309 309 310 310 310 310 310 310 310 310 310 309 309 309 309 309 308 306 304 302 301 301 299 297 294 291 288 286 285 283 282 280 279 277
304 305 306 306 307 308 308 309 310 310 310 310 310 310 311 311 310 310 310 310 309 308 308 309 309 308 306 304 302 301 301 299 297 294 291 289 287 286 284 281 281 280 277
306 306 307 307 308 308 309 310 310 311 311 311 311 311 311 312 311 311 311 310 309 309 309 310 309 307 305 303 301 300 299 298 296 295 293 290 288 286 283 280 279 279 278
307 307 308 308 309 309 309 310 311 311 311 311 311 311 312 312 312 311 311 311 311 311 311 311 309 308 306 303 301 298 297 296 295 295 292 290 288 285 283 281 279 278 277
308 308 309 309 310 310 310 311 311 311 311 311 311 311 311 311 311 311 311 311 311 311 311 310 309 308 306 303 300 297 296 295 294 294 292 290 288 286 283 282 279 277 275
309 309 310 310 310 311 311 311 311 311 311 311 311 310 310 311 311 311 310 311 311 310 310 309 308 307 305 303 300 297 296 295 294 293 292 289 288 286 282 281 279 277 274
310 310 310 310 311 311 311 311 311 311 312 312 311 310 310 310 310 310 310 311 311 310 309 308 307 306 304 302 299 296 296 295 294 293 291 289 287 285 282 280 278 275 273
310 310 311 311 312 312 311 311 311 312 312 312 312 311 310 309 309 310 310 310 310 309 307 307 307 306 304 301 298 297 296 295 293 292 290 289 287 284 282 280 278 274 271
310 311 311 312 312 312 312 312 312 312 312 312 311 311 310 310 310 310 310 309 308 307 307 306 306 306 303 301 298 297 296 294 292 291 289 287 286 283 280 279 277 272 270
311 311 312 312 312 312 312 312 312 312 312 312 311 311 310 310 310 310 310 309 308 307 307 306 306 305 303 300 299 298 296 293 291 289 287 286 284 281 279 278 276 272 269
311 312 312 312 312 312 312 312 311 311 311 311 311 311 311 310 310 310 309 308 307 307 307 306 305 303 301 300 299 298 296 293 290 287 285 283 281 280 278 277 275 273 269
311 312 312 312 313 312 312 311 311 311 311 311 311 311 311 311 311 310 309 308 307 307 307 306 305 303 301 300 298 297 295 293 290 287 284 282 279 278 277 276 274 272 269
311 312 312 313 313 313 312 312 312 311 311 311 311 311 311 311 311 310 308 307 307 307 306 306 305 303 302 300 298 296 294 292 289 286 283 280 278 277 276 275 273 271 269
312 312 313 313 313 313 313 313 313 312 312 312 312 312 311 311 310 309 308 306 306 306 306 306 305 303 302 300 298 296 294 291 288 285 282 279 277 275 274 273 271 269 268
Height
5730 5726 5721 5717 5712 5707 5702 5697 5692 5686 5680 5674 5668 5662 5655 5649 5642 5635 5628 5621 5614 5606 5599 5591 5584 5576 5568 5560 5552 5544 5536 5527 5523 5523 5515 5508 5500 5493 5488 5483 5479 5476 5474
5720 5716 5711 5706 5701 5696 5691 5685 5680 5674 5667 5661 5654 5648 5641 5634 5626 5619 5612 5604 5596 5589 5581 5573 5565 5556 5548 5540 5531 5523 5514 5505 5498 5495 5492 5484 5476 5468 5462 5457 5453 5450 5447
5710 5705 5700 5695 5690 5685 5679 5673 5667 5661 5654 5647 5640 5633 5625 5618 5610 5602 5595 5587 5579 5571 5562 5553 5545 5536 5527 5518 5509 5501 5492 5483 5474 5467 5465 5458 5451 5444 5437 5433 5429 5426 5423
5699 5694 5689 5684 5678 5673 5667 5660 5654 5647 5640 5633 5625 5617 5609 5601 5593 5585 5577 5569 5561 5552 5542 5533 5524 5514 5505 5496 5487 5478 5469 5460 5451 5443 5438 5433 5427 5421 5414 5410 5407 5404 5402
5688 5683 5678 5672 5666 5660 5654 5647 5640 5633 5625 5618 5610 5602 5593 5584 5576 5567 5559 5551 5542 5533 5523 5513 5502 5492 5482 5472 5463 5454 5445 5436 5428 5421 5415 5410 5405 5399 5394 5389 5386 5384 5383
5677 5671 5665 5660 5654 5647 5640 5633 5626 5619 5611 5602 5594 5586 5577 5567 5558 5548 5539 5531 5522 5512 5502 5492 5481 5471 5460 5450 5440 5430 5421 5412 5405 5399 5394 5389 5385 5379 5374 5371 5368 5366 5366
5665 5659 5653 5647 5640 5634 5627 5619 5612 5604 5596 5587 5578 5569 5560 5550 5539 5530 5520 5510 5501 5491 5480 5469 5459 5449 5437 5427 5419 5410 5402 5392 5384 5378 5374 5370 5366 5362 5357 5355 5352 5350 5350
5652 5646 5640 5633 5627 5620 5612 5605 5596 5588 5580 5571 5562 5552 5543 5532 5521 5510 5500 5490 5481 5470 5458 5447 5437 5427 5416 5405 5398 5391 5384 5376 5368 5362 5357 5354 5350 5346 5342 5340 5338 5337 5337
5639 5633 5626 5620 5613 5605 5598 5589 5581 5573 5564 5555 5545 5535 5525 5514 5502 5490 5478 5469 5460 5450 5439 5427 5415 5405 5397 5386 5378 5372 5366 5360 5353 5347 5342 5338 5335 5332 5329 5327 5326 5325 5325
5626 5619 5612 5605 5598 5590 5582 5573 5565 5556 5547 5537 5528 5516 5505 5494 5482 5470 5457 5448 5440 5431 5420 5409 5396 5385 5377 5368 5360 5353 5348 5343 5338 5333 5329 5325 5322 5320 5317 5315 5314 5313 5314
5612 5605 5598 5590 5582 5574 5566 5557 5548 5539 5530 5520 5510 5500 5487 5474 5462 5450 5437 5425 5416 5408 5399 5390 5380 5369 5360 5352 5344 5337 5331 5327 5323 5319 5316 5313 5311 5309 5307 5305 5304 5303 5303
5599 5591 5584 5575 5567 5558 5550 5540 5530 5520 5511 5501 5490 5481 5469 5455 5442 5430 5418 5406 5395 5386 5379 5371 5362 5353 5345 5337 5329 5323 5317 5313 5309 5306 5303 5301 5300 5298 5296 5295 5294 5293 5293
5584 5577 5569 5561 5551 5542 5532 5523 5513 5502 5491 5480 5469 5459 5450 5438 5425 5411 5400 5389 5378 5368 5361 5353 5345 5337 5329 5323 5316 5310 5304 5300 5297 5294 5292 5291 5289 5288 5286 5286 5285 5284 5284
5570 5562 5554 5545 5536 5526 5515 5505 5494 5483 5471 5460 5448 5438 5428 5419 5407 5394 5383 5373 5363 5353 5345 5338 5330 5322 5315 5309 5303 5298 5293 5289 5286 5284 5282 5281 5279 5278 5277 5276 5276 5275 5275
5555 5547 5538 5529 5519 5509 5499 5488 5476 5465 5450 5438 5427 5416 5406 5398 5388 5375 5365 5356 5347 5338 5330 5324 5317 5310 5303 5297 5292 5287 5283 5279 5277 5274 5273 5271 5270 5269 5268 5267 5267 5267 5267
5539 5531 5521 5512 5502 5491 5481 5472 5459 5446 5434 5420 5406 5395 5385 5375 5366 5358 5348 5339 5331 5323 5315 5309 5303 5296 5290 5285 5281 5277 5274 5270 5268 5266 5264 5262 5261 5260 5259 5258 5258 5258 5258
5522 5513 5504 5494 5483 5472 5461 5450 5441 5432 5418 5404 5390 5378 5367 5357 5349 5340 5332 5324 5317 5309 5302 5295 5290 5284 5279 5274 5270 5267 5265 5262 5259 5257 5255 5254 5252 5251 5251 5250 5250 5250 5250
5505 5495 5485 5475 5464 5452 5441 5429 5417 5407 5399 5390 5377 5362 5351 5342 5333 5325 5317 5310 5304 5296 5289 5283 5278 5273 5268 5264 5260 5258 5255 5253 5250 5248 5247 5245 5244 5243 5242 5242 5242 5242 5242
5488 5478 5467 5456 5445 5433 5421 5409 5398 5387 5376 5368 5359 5348 5336 5328 5320 5312 5303 5296 5289 5284 5277 5272 5267 5262 5258 5254 5251 5248 5246 5244 5242 5239 5238 5236 5235 5234 5234 5234 5233 5234 5234
5471 5459 5447 5436 5425 5413 5401 5389 5378 5368 5358 5348 5339 5331 5322 5314 5307 5300 5291 5284 5277 5271 5266 5261 5257 5252 5248 5244 5242 5239 5237 5235 5233 5231 5229 5228 5227 5226 5226 5225 5225 5226 5226
5452 5441 5429 5417 5405 5393 5382 5370 5360 5349 5340 5331 5323 5314 5306 5298 5292 5286 5279 5272 5265 5260 5255 5251 5247 5242 5238 5235 5232 5230 5228 5226 5224 5222 5220 5219 5218 5218 5217 5217 5218 5218 5218
5433 5422 5410 5398 5386 5374 5363 5352 5342 5332 5323 5315 5308 5300 5292 5284 5278 5272 5266 5260 5254 5249 5245 5241 5237 5233 5230 5226 5224 5221 5219 5217 5215 5213 5212 5211 5210 5209 5209 5209 5210 5210 5211
5413 5402 5391 5379 5367 5356 5346 5335 5325 5316 5308 5300 5293 5286 5279 5272 5266 5259 5254 5249 5244 5239 5235 5231 5228 5224 5221 5217 5215 5212 5210 5208 5206 5204 5203 5202 5202 5201 5201 5201 5202 5202 5203
5394 5383 5371 5361 5349 5339 5329 5319 5310 5302 5294 5286 5279 5272 5266 5260 5254 5248 5243 5238 5233 5229 5225 5221 5218 5215 5211 5208 5205 5203 5201 5198 5196 5195 5194 5193 5193 5193 5193 5193 5193 5194 5194
5375 5364 5353 5342 5332 5322 5312 5304 5295 5287 5280 5273 5266 5259 5253 5248 5242 5237 5232 5228 5223 5220 5216 5212 5208 5205 5202 5199 5196 5193 5191 5189 5187 5186 5185 5184 5184 5184 5184 5184 5184 5185 5186
5356 5346 5335 5325 5315 5306 5297 5289 5282 5274 5267 5260 5253 5247 5242 5236 5231 5226 5221 5217 5213 5210 5206 5203 5199 5195 5192 5189 5187 5184 5182 5180 5178 5176 5175 5175 5175 5175 5175 5175 5175 5176 5177